TimeCET,TemperatureF,Dew PointF,Humidity,Sea Level PressureIn,VisibilityMPH,Wind Direction,Wind SpeedMPH,Gust SpeedMPH,PrecipitationIn,Events,Conditions,WindDirDegrees,DateUTC
1:00 AM,50,42,65,30.30,,NNE,4.6,,,,,20,2013-01-10 00:00:00
5:00 AM,53.6,44.6,72,30.24,-9999.0,NNW,9.2,-,N/A,,Clear,330,2013-01-10 04:00:00
5:30 AM,55.4,42.8,63,30.24,-9999.0,NNW,8.1,-,N/A,,Clear,330,2013-01-10 04:30:00
6:00 AM,55.4,44.6,67,30.24,-9999.0,NNE,6.9,-,N/A,,Clear,30,2013-01-10 05:00:00
6:30 AM,57.2,44.6,63,30.24,-9999.0,Variable,4.6,-,N/A,,Clear,0,2013-01-10 05:30:00
7:00 AM,55,41,48,30.25,22,NNE,4.6,,,,Clear,20,2013-01-10 06:00:00
7:00 AM,57.2,42.8,59,30.24,-9999.0,North,4.6,-,N/A,,Clear,10,2013-01-10 06:00:00
7:30 AM,55.4,42.8,63,30.24,-9999.0,NNE,3.5,-,N/A,,Clear,20,2013-01-10 06:30:00
8:00 AM,55.4,42.8,63,30.27,-9999.0,SW,4.6,-,N/A,,Clear,220,2013-01-10 07:00:00
8:30 AM,53.6,44.6,72,30.27,6.2,Calm,Calm,-,N/A,,Partly Cloudy,0,2013-01-10 07:30:00
9:00 AM,59.0,42.8,55,30.27,6.2,Variable,3.5,-,N/A,,Partly Cloudy,0,2013-01-10 08:00:00
9:30 AM,59.0,42.8,55,30.27,6.2,Variable,2.3,-,N/A,,Partly Cloudy,0,2013-01-10 08:30:00
10:00 AM,59.0,44.6,59,30.27,6.2,Variable,2.3,-,N/A,,Partly Cloudy,0,2013-01-10 09:00:00
10:30 AM,62.6,46.4,55,30.27,6.2,Calm,Calm,-,N/A,,Partly Cloudy,0,2013-01-10 09:30:00
11:00 AM,62.6,46.4,55,30.27,6.2,SW,3.5,-,N/A,,Partly Cloudy,230,2013-01-10 10:00:00
11:30 AM,62.6,44.6,52,30.27,6.2,SSW,4.6,-,N/A,,Partly Cloudy,210,2013-01-10 10:30:00
12:00 PM,62.6,51.8,68,30.27,6.2,SW,6.9,-,N/A,,Partly Cloudy,220,2013-01-10 11:00:00
12:30 PM,62.6,50.0,63,30.27,-9999.0,SSW,6.9,-,N/A,,Clear,210,2013-01-10 11:30:00
1:00 PM,62,50,56,30.25,25,SSW,8.1,,,,Clear,210,2013-01-10 12:00:00
1:00 PM,62.6,51.8,68,30.24,-9999.0,SSW,6.9,-,N/A,,Clear,210,2013-01-10 12:00:00
1:30 PM,64.4,55.4,73,30.24,-9999.0,SSW,6.9,-,N/A,,Clear,210,2013-01-10 12:30:00
2:00 PM,64.4,55.4,73,30.21,6.2,SSW,4.6,-,N/A,,Partly Cloudy,200,2013-01-10 13:00:00
2:30 PM,64.4,55.4,73,30.21,6.2,SSW,3.5,-,N/A,,Partly Cloudy,210,2013-01-10 13:30:00
3:00 PM,62.6,57.2,82,30.18,6.2,SSW,5.8,-,N/A,,Partly Cloudy,210,2013-01-10 14:00:00
3:30 PM,62.6,57.2,82,30.18,6.2,SSW,5.8,-,N/A,,Partly Cloudy,200,2013-01-10 14:30:00
4:00 PM,62.6,57.2,82,30.18,6.2,SSW,3.5,-,N/A,,Partly Cloudy,200,2013-01-10 15:00:00
4:30 PM,62.6,59.0,88,30.18,6.2,SSW,3.5,-,N/A,,Partly Cloudy,210,2013-01-10 15:30:00
5:00 PM,60.8,57.2,88,30.18,6.2,Variable,2.3,-,N/A,,Partly Cloudy,0,2013-01-10 16:00:00
5:30 PM,60.8,57.2,88,30.18,6.2,Variable,1.2,-,N/A,,Partly Cloudy,0,2013-01-10 16:30:00
6:00 PM,60.8,59.0,94,30.18,6.2,Calm,Calm,-,N/A,,Partly Cloudy,0,2013-01-10 17:00:00
6:30 PM,59.0,57.2,94,30.18,6.2,Calm,Calm,-,N/A,,Partly Cloudy,0,2013-01-10 17:30:00
7:00 PM,58,54,81,30.20,12,Calm,Calm,,,,Scattered Clouds,,2013-01-10 18:00:00
7:00 PM,59.0,57.2,94,30.18,6.2,Calm,Calm,-,N/A,,Partly Cloudy,0,2013-01-10 18:00:00
7:30 PM,57.2,57.2,100,30.18,6.2,Variable,1.2,-,N/A,,Partly Cloudy,0,2013-01-10 18:30:00
8:00 PM,57.2,55.4,94,30.18,6.2,Variable,1.2,-,N/A,,Partly Cloudy,0,2013-01-10 19:00:00
8:30 PM,57.2,53.6,88,30.18,6.2,Calm,Calm,-,N/A,,Partly Cloudy,0,2013-01-10 19:30:00
9:00 PM,55.4,53.6,94,30.18,6.2,Calm,Calm,-,N/A,,Partly Cloudy,0,2013-01-10 20:00:00
9:30 PM,57.2,51.8,82,30.18,6.2,NNW,8.1,-,N/A,,Partly Cloudy,330,2013-01-10 20:30:00
10:00 PM,55.4,50.0,82,30.18,-9999.0,Variable,1.2,-,N/A,,Clear,0,2013-01-10 21:00:00
10:30 PM,55.4,48.2,77,30.18,-9999.0,Variable,2.3,-,N/A,,Clear,0,2013-01-10 21:30:00